Location: Bidwell Hollow
(37.7387°N, 90.1707°W)
Time: 07:47:59
(UTC+00:00)

Envisat - Pass Details

Date: 11 October 2024
Orbit: 762 x 763 km, 98.3° (Epoch: 03 November)

Event Time Altitude Azimuth Distance (km) Brightness Sun altitude
Rises 09:25:10 0° 8° (N) 3,232 6.5 -32.2°
Reaches altitude 10° 09:27:30 10° 5° (N) 2,302 5.7 -31.8°
Enters shadow 09:28:54 19° 1° (N) 1,767 5.0 -31.5°
